Location: Bois de la Silve
(44.4667°N, 6.7833°E)
Time: 23:20:45
(UTC+00:00)

USA 238 DEB - Pass Details

Date: 28 October 2020
Orbit: 1001 x 1211 km, 63.5° (Epoch: 22 November)

Event Time Altitude Azimuth Distance (km) Brightness Sun altitude
Exits shadow 02:41:04 47° 34° (NE) 1,370 4.4 -36.6°
Drops below altitude 10° 02:45:46 10° 37° (NE) 2,921 6.5 -35.8°
Sets 02:48:29 0° 38° (NE) 3,911 7.4 -35.4°
